Wind_Speed
12 12 11 10 10 10 11 10 10 10 11 11 12 12 12 12 12 12 12 12 12 12 11 10 9 10 11 11 11 10 10 11 11 9 8 7 7 7 8 9 11 13 14 15 16 17 18 18 19 20 21 22 23 23 24 24 24 25 25 26 26 27 27 27 27 27 26 25 25 26 25 25 25 26 26 27 27 28 29 30 31 32 33 34 34
12 12 11 11 11 10 10 10 10 10 11 12 12 12 12 13 12 13 13 12 11 12 12 11 11 11 10 10 10 9 8 10 12 9 8 8 7 8 8 10 12 14 15 16 17 17 18 19 20 21 22 23 23 23 24 24 25 25 26 26 27 27 27 26 25 25 24 23 23 24 24 24 24 25 26 26 27 28 28 29 30 32 33 33 34
12 11 11 11 11 11 10 9 9 10 11 12 12 13 13 13 13 13 13 12 11 12 13 12 13 12 10 9 9 8 7 10 12 10 8 8 7 8 9 11 13 15 15 16 17 17 18 19 20 21 22 23 23 23 23 24 25 25 26 26 26 26 25 24 22 22 22 22 22 23 24 24 24 25 26 27 27 28 29 30 30 31 32 33 34
11 11 11 11 11 11 10 9 9 10 11 11 12 13 14 14 14 14 13 13 12 13 14 13 13 12 10 9 8 8 8 10 12 10 8 8 7 8 10 12 14 15 16 16 17 17 18 20 21 22 21 22 22 23 24 24 25 25 25 25 24 23 22 21 21 21 22 22 22 23 23 24 24 25 26 27 27 28 29 30 30 31 32 33 33
11 11 10 11 11 10 9 9 9 10 10 11 12 13 14 15 15 14 13 14 14 14 14 13 12 10 10 9 8 9 9 11 12 9 8 7 8 9 11 13 14 15 16 16 17 18 20 21 21 21 21 21 22 23 24 24 24 24 24 22 21 21 20 21 21 21 21 22 22 23 24 24 25 26 27 28 29 31 32 32 33 33 34 34 34
10 10 10 11 11 10 10 10 10 10 11 12 13 13 15 16 16 15 15 16 16 15 14 12 10 9 9 10 10 10 11 13 12 9 7 8 9 11 12 14 14 14 15 16 17 19 21 21 21 21 21 22 23 23 24 24 23 22 21 20 20 20 20 20 20 20 21 22 23 24 25 26 27 28 30 31 32 33 34 36 36 37 37 37 36
9 9 10 11 11 10 11 11 11 11 12 13 14 14 16 17 17 17 16 17 17 15 13 12 11 11 10 11 12 12 13 13 11 9 8 8 10 12 13 13 13 14 15 16 18 19 20 21 21 21 22 23 23 23 23 22 21 21 20 19 19 19 19 19 20 21 22 23 24 24 25 26 28 29 31 32 33 34 35 37 39 40 40 40 39
9 9 10 11 11 11 11 11 12 12 13 13 15 16 17 18 18 18 18 17 16 14 13 12 12 11 10 11 12 13 13 12 10 9 9 10 11 13 13 13 13 14 16 17 18 19 19 19 21 22 22 23 23 22 21 20 20 19 19 19 19 19 19 20 20 21 22 23 24 25 25 26 28 30 31 33 34 35 37 38 40 41 42 43 43
11 11 11 12 11 11 11 11 12 12 13 14 15 16 18 19 19 19 18 17 16 14 14 13 13 12 11 12 12 12 12 10 9 9 10 11 13 14 14 14 14 15 16 17 17 18 18 19 20 21 22 22 21 20 19 19 19 18 18 18 18 19 19 19 20 20 21 22 24 25 26 27 29 31 33 34 36 37 38 40 41 43 43 44 44
11 12 12 12 11 12 12 12 12 12 13 14 14 16 17 18 19 19 18 16 16 15 14 13 13 13 13 12 12 12 12 11 10 11 11 12 14 15 15 15 16 16 17 17 17 18 19 20 20 21 21 20 19 18 18 18 18 17 17 17 18 18 19 19 20 20 22 23 24 25 26 28 30 32 33 34 36 37 39 40 42 44 45 45 44
12 12 12 12 12 12 12 11 12 12 13 14 14 15 15 16 18 18 16 15 16 15 14 13 13 12 12 12 12 12 13 13 12 12 12 13 14 16 16 17 17 17 17 18 18 19 20 21 21 21 20 19 18 18 18 18 17 17 17 17 18 18 19 19 20 21 22 23 24 26 27 29 31 32 33 34 36 38 39 41 43 45 46 46 46
12 12 12 12 12 12 12 11 11 12 12 13 13 14 14 15 16 16 16 15 15 15 14 13 12 11 10 11 12 13 14 13 13 13 12 13 15 16 17 18 18 18 18 19 19 20 21 21 21 21 19 19 19 18 18 17 16 16 16 17 18 18 19 19 20 21 22 24 25 27 29 30 31 33 34 35 36 38 39 41 43 45 45 46 46
12 12 12 13 12 12 12 12 12 12 12 13 13 13 14 14 15 15 15 16 15 14 13 12 11 10 10 11 12 13 13 13 13 13 13 14 14 16 17 17 17 18 18 19 20 20 21 21 21 20 19 19 18 18 17 16 15 15 16 17 18 18 19 20 21 22 23 25 26 28 30 31 32 33 34 35 37 38 39 41 43 44 45 45 45
12 12 13 13 13 13 13 13 12 12 13 13 13 13 13 14 14 15 15 15 15 14 12 11 11 11 11 11 12 12 12 13 13 13 13 13 14 15 16 16 17 17 18 19 20 20 20 20 20 20 19 19 18 17 16 14 14 14 15 17 18 18 19 20 22 24 25 26 28 30 31 32 33 34 35 36 37 38 39 40 42 43 44 45 45
13 13 13 13 13 13 13 12 12 12 13 13 13 13 13 14 14 15 15 15 15 14 12 12 12 11 10 11 11 12 13 13 13 13 13 13 14 15 15 15 16 17 18 19 20 20 20 20 20 20 19 18 16 16 15 14 13 14 15 16 18 19 20 21 24 25 27 28 30 31 32 33 34 35 36 37 37 38 39 40 41 43 44 44 44
13 14 14 13 13 13 12 12 12 12 13 13 14 14 14 14 15 15 16 16 15 13 13 13 12 10 10 11 11 12 13 13 14 13 13 14 14 14 15 15 16 17 18 19 20 20 21 20 20 19 18 17 15 15 14 13 13 14 16 17 18 19 21 23 25 27 28 30 31 32 33 34 35 36 36 37 38 38 39 40 42 43 44 44 44
14 14 14 14 13 13 12 12 12 12 13 14 15 15 15 15 15 15 16 15 14 14 13 12 10 9 10 10 11 12 12 14 14 13 13 14 14 14 14 15 16 18 19 20 21 21 21 20 19 18 17 16 14 14 14 14 14 15 16 17 19 20 22 24 26 28 29 30 31 32 33 35 36 36 37 37 38 39 40 41 42 43 43 43 43
13 14 13 13 13 13 13 13 13 13 14 14 15 16 17 17 16 16 15 14 14 15 13 11 9 9 10 10 11 11 13 13 13 13 13 14 14 14 15 16 17 18 20 20 21 21 21 20 19 18 16 15 14 14 15 14 14 15 17 18 20 21 23 25 27 28 30 31 32 33 34 35 36 37 37 38 38 39 40 41 41 42 42 43 43
14 14 13 13 14 14 14 14 14 14 14 15 15 16 18 19 18 17 14 13 15 15 11 9 10 10 10 11 11 12 13 12 12 13 13 13 14 14 15 16 18 19 20 21 21 21 21 19 19 18 16 15 15 15 15 14 15 16 17 19 21 22 24 26 28 29 30 31 33 34 35 35 36 37 37 38 38 39 40 41 42 42 42 42 42
14 13 13 14 14 14 15 15 15 15 15 15 16 16 18 19 19 17 13 12 14 13 9 9 10 10 11 11 12 12 12 12 12 12 13 13 14 15 16 17 19 20 21 21 21 21 20 19 19 18 17 16 15 15 15 15 15 16 18 20 22 24 26 27 29 30 31 32 33 34 35 36 36 37 37 38 39 40 41 41 42 41 41 42 42
14 14 14 14 15 15 16 16 16 16 16 16 16 17 17 18 18 15 13 13 14 11 10 10 10 10 11 11 11 12 12 12 11 11 12 13 14 15 17 18 19 20 21 21 21 20 20 19 19 18 17 17 15 14 15 15 16 17 19 21 23 25 27 28 30 31 32 33 34 35 35 35 36 37 37 38 39 40 42 42 42 41 41 41 42
13 14 14 15 15 15 16 16 16 16 16 16 16 16 15 16 16 15 14 15 14 11 11 11 10 10 10 11 11 11 11 11 10 11 11 12 13 15 17 19 19 20 21 21 20 20 19 18 18 18 18 17 15 14 15 15 16 18 20 22 24 26 28 29 31 32 33 34 35 36 36 36 36 36 37 38 39 41 42 43 42 41 41 41 41
14 15 15 15 15 15 16 16 16 16 16 16 16 16 15 16 15 14 14 14 13 11 10 10 9 9 10 10 11 10 10 10 10 11 11 12 13 15 17 19 20 20 20 20 20 19 18 17 18 18 18 17 15 15 15 16 17 19 21 23 25 27 29 30 32 33 34 35 36 36 36 36 36 36 37 37 39 41 43 43 43 41 40 40 41
15 15 15 15 15 15 16 16 16 16 16 16 15 15 15 16 15 13 12 12 11 10 9 9 9 9 10 10 10 10 10 10 10 10 11 12 14 16 18 19 19 19 19 19 19 19 18 17 17 18 18 16 15 15 16 16 18 20 22 24 26 28 30 31 32 34 35 36 36 37 36 36 36 36 37 37 39 41 42 43 43 41 40 39 40
15 15 15 15 15 16 16 16 16 17 16 15 15 15 15 15 14 13 12 10 9 8 8 8 9 9 10 10 9 9 10 10 10 10 11 13 14 16 18 19 19 18 18 18 18 18 17 17 17 17 17 15 14 15 16 16 18 21 23 25 27 28 30 32 33 34 36 36 37 37 37 36 36 36 37 38 39 41 42 43 43 42 40 39 39
17 16 16 16 16 16 16 16 17 17 15 15 16 15 15 15 13 12 11 9 8 8 8 8 9 9 9 9 9 10 10 10 10 11 12 13 15 16 18 18 19 18 17 17 18 18 17 17 17 17 16 14 14 15 16 17 19 21 23 25 27 29 31 32 34 35 36 36 37 37 36 36 36 36 37 38 39 41 42 43 42 41 40 40 39
18 17 17 17 16 16 16 16 17 16 14 15 15 14 14 14 13 12 11 9 8 8 8 8 9 9 9 10 10 10 10 10 11 11 12 14 15 17 17 17 18 18 17 17 17 17 17 18 17 16 15 14 14 15 16 17 19 21 24 26 28 29 31 32 34 35 36 36 36 36 36 36 36 36 37 38 39 41 42 42 41 41 41 41 40
18 17 17 16 15 16 16 16 16 15 14 14 13 12 12 12 12 12 11 9 9 8 8 8 9 9 9 10 10 10 10 11 11 12 13 14 16 16 17 17 17 17 17 17 17 17 17 18 17 16 15 14 14 15 16 17 19 21 24 26 28 29 31 32 33 34 35 35 35 35 35 35 35 36 37 38 39 40 41 41 40 41 42 41 40
18 17 16 16 16 16 16 16 15 15 15 13 11 11 12 11 11 11 11 10 9 8 8 9 9 9 10 10 10 10 10 11 12 13 14 14 15 16 16 16 16 16 17 17 17 18 17 17 16 15 15 15 15 15 16 17 19 22 24 26 27 29 30 32 33 33 34 35 35 35 34 34 35 35 36 37 38 39 40 40 40 41 41 41 40
17 16 16 16 17 17 17 16 15 15 16 15 12 12 12 11 12 12 11 10 9 8 9 9 9 9 10 10 10 10 10 12 13 14 15 15 16 16 16 16 16 16 16 17 18 18 17 16 16 15 15 15 15 15 16 17 19 22 24 26 27 28 30 31 32 33 33 34 34 34 34 33 34 35 36 37 38 38 39 40 41 41 41 40 40
17 16 17 17 17 17 16 17 16 15 17 17 14 14 12 12 12 12 11 9 8 9 10 10 10 10 10 10 10 10 11 12 13 15 16 16 16 16 15 15 15 15 16 17 18 18 17 16 15 15 16 15 15 16 17 18 19 22 24 26 27 28 30 31 31 32 33 34 34 33 33 33 33 34 35 36 37 38 39 40 40 40 40 40 40
17 17 18 17 17 16 16 17 17 16 17 17 17 18 15 13 12 12 10 8 8 10 11 10 10 10 11 11 10 11 11 13 14 15 16 17 17 16 15 15 15 15 16 17 17 17 16 15 15 15 16 15 15 17 18 19 21 22 23 25 26 28 30 30 31 32 32 33 33 32 32 32 33 33 34 36 37 38 38 39 40 40 40 40 41
17 18 19 18 17 16 16 17 18 17 17 17 19 20 19 15 13 11 9 9 10 11 11 11 11 11 11 11 11 11 12 13 15 16 17 17 17 17 16 15 15 16 17 17 17 16 16 15 15 16 15 15 15 16 18 20 22 23 23 24 26 28 29 30 31 32 32 31 32 32 32 31 32 32 34 35 36 37 38 38 38 39 39 40 41
17 19 19 18 16 16 15 17 19 18 18 19 19 20 19 16 12 10 10 10 11 11 11 11 11 11 11 11 11 12 13 14 16 17 18 18 17 17 16 16 16 17 18 18 17 16 16 16 16 16 15 15 15 16 17 20 22 24 24 25 26 27 28 29 30 31 30 30 30 31 30 30 31 32 33 34 36 36 37 37 38 38 39 40 42
19 19 19 17 16 16 16 17 19 18 18 19 19 18 17 14 11 11 11 12 11 11 11 11 11 11 11 11 12 12 14 15 16 17 18 17 17 16 17 17 18 18 19 17 16 16 16 16 16 15 15 15 16 16 17 19 20 22 24 25 26 27 27 29 29 29 29 29 30 30 29 29 30 31 33 34 35 35 35 36 37 38 39 41 42
20 19 18 17 17 18 17 18 18 18 17 17 17 16 14 12 11 12 12 12 11 10 11 11 10 10 11 11 12 14 15 16 17 17 17 16 16 16 17 18 18 19 19 17 16 16 16 16 16 15 15 15 16 17 18 19 19 20 22 25 26 27 27 28 28 28 28 28 29 28 28 29 30 31 32 33 33 34 35 36 37 38 39 41 42
19 18 17 17 18 18 19 20 19 17 16 15 15 13 12 12 12 12 12 12 11 10 10 11 11 11 11 12 14 15 16 17 17 17 16 16 17 17 18 18 18 18 18 18 17 16 16 16 16 15 15 15 15 16 17 18 19 21 22 23 25 26 27 28 28 27 27 27 27 26 27 27 29 30 31 32 32 33 34 36 37 38 39 41 42
19 17 17 18 19 21 22 21 19 16 14 14 13 12 12 12 12 12 12 11 10 10 11 11 12 12 13 14 15 16 17 17 17 17 17 18 19 18 18 18 18 18 18 18 18 17 17 16 16 16 15 15 15 15 16 16 17 20 22 24 24 25 25 26 27 26 26 26 25 25 26 27 28 30 30 31 32 32 34 35 37 38 39 41 43
17 17 18 18 21 24 24 21 18 15 13 12 12 12 12 12 12 12 12 11 10 11 12 12 13 14 14 14 14 16 17 18 17 18 19 20 19 19 19 19 19 19 19 19 18 18 17 17 17 17 16 16 16 15 16 16 16 17 19 21 23 23 23 23 24 24 24 23 22 22 24 26 27 28 29 30 31 31 33 35 37 38 40 42 44
17 18 20 20 24 27 25 20 17 14 12 12 12 12 12 12 12 12 12 11 11 12 13 14 14 15 15 15 14 15 17 18 18 18 19 20 20 20 20 20 19 19 19 19 19 19 18 17 17 17 17 17 16 16 16 17 18 17 17 18 20 22 22 22 22 22 22 21 20 20 22 24 25 27 28 29 30 31 32 34 36 38 41 43 45
18 20 21 23 27 29 25 20 16 14 12 12 12 12 12 12 12 13 12 12 13 14 15 15 15 16 16 15 15 15 16 18 19 19 19 20 20 20 20 20 20 20 20 20 19 19 19 18 18 18 18 17 17 16 17 18 18 17 17 18 19 21 22 22 22 21 21 20 20 20 22 23 25 26 28 29 30 31 32 34 36 38 41 43 45
19 21 23 25 28 29 25 19 16 14 13 13 12 12 12 13 13 14 14 14 14 15 16 16 16 17 17 16 15 16 17 18 20 20 19 20 20 21 20 20 20 20 20 20 20 20 19 18 18 18 18 18 17 17 17 18 19 18 17 18 19 19 20 21 21 20 20 20 19 19 21 23 24 26 27 29 31 32 33 34 36 38 40 43 45
19 21 23 26 28 28 24 19 16 15 14 14 13 12 13 14 14 15 16 16 16 17 17 17 17 18 18 17 16 17 17 18 20 20 19 19 20 21 20 20 21 21 21 21 21 21 20 19 19 19 18 17 17 17 17 18 19 18 18 18 18 18 18 18 18 18 19 20 20 19 20 22 24 25 27 29 31 32 34 34 35 37 39 42 44
19 21 23 26 28 27 22 19 17 16 15 14 14 13 14 15 16 17 17 17 18 18 19 19 19 19 19 18 18 18 18 19 20 20 20 20 20 20 20 21 21 22 22 22 22 21 20 19 19 19 19 17 17 17 18 18 18 18 19 19 19 19 18 18 18 17 18 20 21 21 21 21 23 25 27 28 30 32 33 34 35 36 38 40 43
20 21 23 26 27 25 21 18 17 16 15 15 14 15 16 16 17 18 19 19 20 20 20 20 20 20 20 20 19 19 19 20 20 21 21 21 21 21 21 21 21 22 23 23 23 22 21 20 20 20 19 18 18 18 18 18 17 18 19 20 20 20 20 20 20 19 19 19 20 21 22 23 24 25 26 28 30 31 33 34 35 36 37 39 41
21 21 24 26 26 23 20 18 17 16 16 16 16 17 17 18 19 20 20 21 21 21 22 22 22 22 22 21 21 20 20 20 21 21 22 21 22 21 21 21 21 22 24 24 23 23 21 20 20 21 20 18 18 18 18 17 16 17 19 20 21 21 20 21 21 21 20 20 19 19 20 21 24 25 26 28 29 31 33 34 35 35 37 38 39
21 23 25 27 25 22 20 18 17 17 16 17 18 18 18 19 20 21 22 22 22 23 23 23 24 25 24 24 24 22 20 20 21 22 22 22 22 22 21 21 22 23 24 24 24 23 22 21 21 21 20 19 19 19 18 17 16 16 18 20 21 21 21 21 22 22 22 21 21 20 20 20 21 23 25 27 28 29 31 33 34 35 35 37 38
22 25 28 28 25 23 21 19 18 18 18 19 20 19 19 20 21 22 23 23 24 24 24 26 28 27 27 26 24 20 19 21 22 23 22 22 22 22 22 22 22 23 25 25 24 24 23 22 21 21 21 20 20 19 17 16 15 15 18 20 21 20 21 21 21 21 21 21 22 22 22 22 21 20 22 24 27 28 29 31 33 34 35 36 37
22 25 28 28 26 24 22 20 20 19 20 21 21 20 20 21 22 23 24 24 24 25 26 28 28 25 24 24 23 20 19 22 23 24 23 22 22 22 22 22 22 24 25 24 24 24 23 22 22 22 21 21 20 19 17 16 15 14 17 20 20 20 21 21 21 21 21 21 22 22 23 24 23 22 20 21 24 27 29 30 31 33 34 35 35
21 24 27 28 27 26 24 22 22 21 21 22 21 21 21 22 23 24 25 25 26 27 29 28 25 22 21 22 22 21 21 23 24 24 24 23 22 22 22 23 23 24 24 24 24 24 23 23 22 22 22 21 20 19 16 15 14 14 15 18 20 20 20 21 21 21 21 21 21 22 23 23 25 25 23 21 20 23 27 29 29 30 33 34 34
21 23 25 27 27 26 26 25 24 23 23 22 21 21 22 23 24 25 26 27 29 30 28 25 22 21 21 21 21 21 23 25 25 24 23 22 22 22 23 23 23 24 24 23 24 23 23 22 22 22 22 22 20 18 16 15 14 13 15 17 19 20 21 22 22 22 21 21 21 22 23 23 24 26 26 25 23 22 24 27 28 29 30 33 34
Wind_Direction
238 238 238 241 246 251 252 249 246 244 244 243 242 243 245 248 251 256 260 262 266 268 270 271 274 282 288 296 304 306 305 304 303 309 315 313 314 320 321 323 328 329 328 327 327 327 327 327 326 327 327 327 328 328 327 326 326 326 326 325 325 325 324 323 322 320 320 319 317 316 315 316 315 313 312 310 309 307 306 304 303 302 300 298 297
239 239 239 242 246 251 253 250 245 243 242 241 242 244 245 246 247 252 258 261 263 264 265 267 270 274 281 293 304 310 305 292 293 300 301 298 303 311 315 320 325 326 326 326 326 326 326 326 325 326 327 327 327 327 326 325 325 325 325 326 325 325 323 322 322 321 321 322 321 320 321 322 322 320 319 318 316 314 311 309 306 304 302 300 298
237 237 238 241 244 248 251 248 242 240 240 241 243 246 246 246 247 252 257 260 259 259 264 270 271 268 274 288 298 299 286 280 285 289 289 291 301 311 317 321 323 323 324 323 323 323 324 324 324 325 326 326 326 325 325 325 325 325 325 326 324 323 322 322 323 324 325 328 328 327 328 329 328 327 326 325 324 322 319 316 313 309 306 303 300
236 236 237 238 242 247 249 243 239 240 241 243 245 246 247 247 250 253 258 262 259 258 265 272 268 262 270 283 293 287 273 276 282 284 288 297 310 319 322 321 321 321 321 321 322 323 324 325 325 325 325 324 324 324 324 325 325 326 325 325 324 323 324 325 329 331 331 333 334 333 334 335 334 334 334 333 332 330 327 324 321 316 312 307 303
235 235 233 234 240 246 245 240 241 245 245 247 247 247 249 250 255 259 263 264 260 259 263 265 259 260 274 285 292 286 274 278 283 285 296 311 321 323 323 320 319 320 320 321 322 324 325 325 324 323 323 323 324 324 325 326 325 326 325 325 326 327 330 332 335 337 337 338 339 340 341 342 342 341 341 340 339 336 333 330 327 323 319 314 309
235 234 232 234 241 245 244 244 246 246 246 248 248 250 252 255 260 263 266 263 259 260 256 251 252 262 278 286 289 286 277 278 283 292 305 317 321 320 318 316 316 316 317 319 321 323 324 322 321 322 324 326 326 326 326 326 326 326 326 328 330 333 336 337 338 341 343 344 345 345 346 346 345 345 344 342 340 338 335 332 330 327 323 319 315
233 231 230 232 238 241 245 249 249 246 247 249 250 251 254 257 261 263 264 260 258 257 250 250 260 269 281 289 290 286 279 279 285 298 309 314 315 314 312 311 312 314 316 319 320 322 321 320 322 325 327 327 326 325 326 326 327 328 330 333 335 337 340 341 344 347 348 347 346 346 346 346 346 345 344 341 339 337 335 333 332 329 326 323 319
228 225 227 229 230 234 241 244 244 245 248 251 251 251 252 256 259 263 264 261 256 251 249 258 267 271 282 288 285 281 278 282 291 300 306 307 308 309 309 310 313 317 319 321 321 320 320 321 323 325 326 325 324 325 327 328 329 331 334 336 339 341 343 346 348 348 347 346 345 346 346 346 345 345 343 341 339 338 336 334 334 333 331 328 323
226 226 229 232 232 236 240 241 242 243 245 247 248 248 250 254 257 261 263 260 252 247 251 260 266 269 275 278 278 279 282 288 295 298 301 302 305 309 312 314 318 321 321 320 319 318 320 322 323 324 323 324 325 327 328 329 332 334 336 340 343 344 345 347 347 346 345 345 346 346 346 347 347 346 344 343 340 339 337 336 337 337 335 333 328
228 231 235 240 242 244 245 246 248 247 247 247 248 249 251 254 258 262 261 254 247 247 251 257 264 268 270 275 282 287 291 293 295 297 300 303 307 312 317 320 322 322 321 319 318 319 322 324 324 324 323 324 326 328 330 331 333 336 339 343 345 345 344 345 344 345 346 346 347 347 348 348 348 346 345 343 341 340 339 339 339 340 338 336 332
231 233 237 244 248 251 250 252 254 255 255 254 255 257 260 262 263 263 256 247 245 248 251 255 263 269 275 286 293 294 293 292 294 298 303 307 310 315 319 322 322 321 320 319 320 322 324 324 324 324 324 327 329 330 331 333 335 338 342 344 344 343 343 342 343 346 347 347 348 349 349 349 347 346 344 343 342 341 341 340 341 341 340 337 334
234 235 239 245 250 253 253 255 258 260 262 263 265 267 272 274 269 262 251 246 249 252 253 258 268 279 291 297 296 294 291 291 296 302 307 309 312 317 319 319 320 320 320 320 321 323 323 324 324 325 327 329 329 330 331 333 337 341 343 341 340 341 341 342 343 347 348 348 350 350 349 348 346 345 345 344 343 342 342 341 340 340 340 339 335
238 241 243 246 248 251 253 256 260 263 266 268 271 273 276 277 272 263 253 250 251 253 257 266 278 293 301 299 294 291 290 293 299 303 306 308 312 314 315 316 316 317 318 319 320 321 322 323 324 326 328 328 326 327 329 333 338 340 338 336 338 340 342 343 345 349 350 350 350 350 349 347 345 345 345 344 343 343 342 341 340 339 340 340 337
241 245 245 245 247 249 252 256 261 264 267 269 271 274 275 274 270 263 257 254 254 256 265 276 288 298 299 294 292 288 289 294 297 298 300 304 308 309 310 311 313 315 316 316 317 318 321 324 326 327 326 322 322 326 329 332 336 335 333 335 338 342 344 346 348 351 351 350 350 350 348 345 344 344 345 344 343 343 342 340 339 339 340 341 340
244 246 245 245 245 248 252 258 263 264 265 268 272 274 271 267 265 260 256 254 254 259 269 282 290 293 289 287 287 285 286 291 292 293 298 301 304 305 306 309 311 313 313 314 316 319 324 327 327 324 320 317 320 325 327 327 329 330 333 338 341 344 348 349 351 352 351 349 349 348 346 344 343 343 344 343 343 343 342 341 339 339 339 340 341
245 246 244 244 244 248 254 260 263 263 264 267 271 271 265 258 257 256 254 253 256 262 271 281 285 282 279 279 279 281 285 286 287 292 297 299 300 302 305 307 309 311 313 316 319 322 326 326 323 319 315 314 320 324 321 319 323 329 336 340 343 347 350 351 352 351 349 348 348 346 345 343 342 342 342 342 342 343 342 341 340 339 338 339 340
245 246 245 243 245 249 254 260 262 263 265 267 268 267 259 251 249 249 249 252 258 263 270 276 274 267 269 271 273 278 281 281 284 291 295 297 299 302 304 306 309 312 315 318 321 324 324 320 317 314 312 314 320 319 311 312 322 331 337 341 344 348 350 351 351 350 347 346 346 345 344 343 342 341 340 341 342 342 342 341 340 338 337 338 339
244 245 245 245 247 250 253 259 262 263 265 266 266 262 253 247 244 243 243 248 255 261 265 267 259 254 258 262 266 271 273 277 284 289 292 297 300 302 304 307 311 314 317 320 322 321 317 314 313 311 312 317 317 311 304 309 322 331 336 341 344 347 349 350 350 347 345 345 345 344 344 342 341 340 339 340 341 342 342 341 339 337 336 336 337
244 245 246 248 250 252 255 258 261 264 264 263 261 257 249 244 242 243 244 247 254 258 257 252 250 251 254 255 257 261 266 273 280 285 291 297 300 302 306 310 313 315 319 320 319 315 312 311 310 310 313 315 311 304 302 310 322 330 336 340 344 346 348 349 347 345 344 344 344 343 343 341 340 340 340 340 341 341 341 340 337 336 335 335 336
244 246 246 249 252 254 256 259 262 263 261 259 257 253 247 241 240 244 244 245 253 257 249 245 249 252 253 253 255 260 265 270 276 284 292 296 299 303 306 310 312 316 318 317 314 311 309 307 307 308 310 308 303 300 302 311 322 329 335 340 343 346 347 347 345 343 343 343 343 343 342 341 340 340 340 340 340 341 341 339 336 335 335 335 335
247 249 248 249 253 255 258 259 261 262 261 261 259 253 245 237 237 237 232 242 254 252 244 245 246 246 248 250 256 262 266 271 277 284 288 292 298 303 306 309 312 315 315 312 309 307 305 303 303 305 306 302 297 298 303 311 322 329 335 340 343 345 345 344 342 341 342 342 342 342 341 341 341 341 341 340 340 340 340 338 336 335 335 336 335
248 249 249 250 253 255 259 260 261 263 264 265 261 253 240 231 229 223 220 236 248 242 240 243 240 241 245 248 255 260 265 271 276 279 283 290 297 303 306 310 312 312 310 308 305 302 300 299 300 302 301 298 295 297 303 312 322 329 335 340 342 343 343 341 340 340 341 341 341 341 341 341 342 342 342 341 340 340 339 337 336 336 336 336 335
249 250 250 251 253 255 258 259 263 266 267 266 258 245 232 225 223 220 221 231 236 235 239 244 242 244 247 250 254 258 263 270 273 277 285 292 298 304 307 309 309 308 306 303 299 296 296 296 298 299 297 295 294 297 303 312 322 330 336 340 341 341 340 339 339 339 340 341 341 341 342 342 343 343 342 342 341 340 338 337 336 336 336 336 334
250 253 254 254 254 254 256 259 263 266 267 262 247 233 226 220 216 219 224 225 226 235 243 246 250 252 252 254 256 259 265 271 275 282 291 297 303 306 306 306 304 304 302 297 294 293 294 295 296 296 294 292 294 298 303 313 324 332 337 339 339 338 338 337 337 339 340 340 340 341 342 342 343 343 343 342 342 340 338 336 335 335 337 336 335
250 252 253 252 252 252 254 258 261 263 263 250 231 225 222 215 211 215 220 221 226 238 245 249 255 257 257 258 261 267 271 275 281 289 296 302 305 304 303 302 301 300 297 292 291 292 293 295 295 294 292 292 296 299 305 315 326 333 337 337 336 336 336 336 337 339 340 340 340 341 342 343 342 343 343 342 341 340 337 336 334 335 337 337 336
249 251 250 249 248 249 252 255 257 261 256 232 220 223 218 208 207 213 216 225 237 243 248 253 258 261 263 266 269 273 275 279 287 293 298 302 302 300 300 301 300 298 293 290 290 292 293 295 295 294 293 294 298 302 310 320 329 333 335 334 334 335 336 336 338 339 339 339 340 341 342 342 342 342 342 342 341 339 337 335 334 335 337 339 338
250 252 252 250 249 249 251 251 254 255 240 217 216 223 214 203 206 215 221 233 246 250 254 259 263 266 269 272 273 274 277 284 290 295 299 300 298 299 300 300 297 295 292 290 291 293 294 294 295 295 295 297 301 306 315 323 329 333 332 332 333 334 335 337 338 338 337 338 341 342 342 342 342 342 342 341 340 339 336 335 334 336 338 340 339
251 253 253 252 250 250 250 248 249 246 224 211 218 222 211 205 209 218 228 239 248 254 259 265 270 271 271 273 273 276 282 288 293 296 298 297 296 297 297 296 293 292 292 291 291 293 293 293 296 297 298 300 305 310 318 325 330 331 329 330 332 333 335 337 337 337 337 339 341 342 342 342 342 342 340 340 340 338 336 335 336 338 340 341 341
254 256 255 253 250 249 249 245 243 235 215 205 214 216 212 217 221 225 234 242 251 259 266 272 273 272 272 272 273 278 285 291 294 295 295 294 293 293 292 292 290 291 292 292 292 292 292 294 298 300 301 303 307 313 320 326 329 328 327 329 331 333 335 336 336 336 337 339 341 341 341 341 342 341 339 339 340 338 336 336 338 340 341 342 342
257 259 257 253 250 249 247 241 237 229 212 202 204 209 214 228 232 233 239 244 254 265 270 273 273 272 273 273 275 281 286 291 293 292 292 291 291 290 290 290 290 290 291 291 291 292 293 297 300 300 299 302 309 315 320 325 327 326 326 328 331 333 334 334 335 336 338 339 341 341 341 342 341 339 339 340 340 338 338 339 341 342 343 343 344
256 256 253 251 249 247 243 236 232 227 216 208 206 210 221 237 238 236 242 248 261 269 270 272 273 275 276 276 278 281 284 288 290 290 290 289 288 287 288 290 290 289 289 288 288 290 294 298 299 296 297 303 310 315 319 323 324 324 325 328 331 332 333 333 335 337 339 340 340 340 341 342 340 339 341 342 341 340 341 342 343 343 344 345 347
255 252 248 248 247 243 239 231 225 223 218 212 211 216 229 245 243 239 247 256 265 268 268 271 274 276 279 280 282 283 284 287 288 288 287 285 285 286 288 290 290 288 286 284 285 289 294 296 295 293 296 303 310 316 319 322 322 323 325 328 331 331 332 333 335 338 339 340 340 340 341 341 341 341 343 343 342 342 344 344 344 345 346 348 349
253 250 248 248 245 239 234 226 220 219 216 212 213 219 232 246 247 245 254 260 263 264 266 270 274 278 282 284 284 283 285 286 287 285 283 283 285 288 291 293 292 289 286 284 287 293 295 294 292 291 295 301 308 315 318 320 321 322 325 328 330 330 331 334 337 339 339 339 340 341 341 342 343 344 345 344 344 345 346 346 347 347 348 350 351
251 251 250 247 241 233 228 221 216 215 212 211 215 222 233 243 246 249 255 257 259 262 265 271 277 282 285 285 284 285 287 288 287 285 283 285 289 294 297 297 294 290 287 287 292 295 294 292 290 291 294 300 307 313 316 318 319 321 325 329 330 330 332 335 338 339 338 339 340 341 342 344 345 346 346 346 346 347 348 349 350 351 351 352 353
250 252 250 243 234 227 223 216 209 206 206 209 216 223 232 240 245 251 254 256 258 261 267 273 278 281 283 284 286 287 287 286 286 286 287 290 296 300 301 298 293 289 287 289 293 292 290 287 288 290 294 300 307 312 314 316 318 321 326 328 328 331 334 336 338 339 338 340 342 342 344 347 348 348 347 348 348 349 350 352 353 354 354 354 354
250 250 244 234 227 223 217 204 196 194 198 206 215 223 231 239 246 251 254 255 258 261 267 272 275 278 281 283 284 283 283 285 286 287 287 290 296 300 299 295 291 289 289 290 290 287 286 285 287 291 294 300 307 310 313 316 320 324 325 326 328 333 336 337 338 339 340 342 343 344 347 349 349 349 348 348 349 351 353 355 357 357 357 356 356
250 247 236 226 222 215 201 190 186 190 200 209 218 226 233 242 248 253 255 254 256 260 264 268 272 275 277 278 280 282 284 287 287 285 284 287 292 296 296 293 291 291 291 291 289 286 286 286 288 291 295 299 304 308 313 318 323 325 324 326 331 336 337 337 338 341 342 343 344 346 348 349 349 349 349 349 351 354 357 358 360 0 360 359 359
248 239 228 221 214 200 188 185 189 195 206 216 223 231 239 246 250 252 251 250 252 256 261 267 271 274 276 278 282 285 287 289 287 284 283 285 289 293 294 293 292 292 291 289 288 288 287 287 288 291 294 298 302 307 313 318 322 323 325 330 334 336 337 336 338 342 342 344 347 347 347 350 351 351 350 350 353 357 359 1 2 3 2 3 2
242 229 221 217 205 192 187 189 193 199 211 222 230 237 244 248 249 247 246 247 251 256 261 267 271 274 276 280 284 286 288 289 288 285 283 284 288 293 294 292 291 291 289 287 287 286 285 286 288 291 294 298 303 308 313 316 319 321 326 331 332 333 335 336 338 341 341 344 348 347 347 351 353 352 351 351 354 358 1 4 4 4 5 5 5
235 222 218 212 199 192 191 194 197 203 216 228 235 241 245 246 245 243 242 245 250 256 261 266 271 274 277 279 282 283 286 287 286 286 284 284 289 294 293 290 290 289 287 286 285 284 284 285 287 291 295 299 304 310 315 317 319 322 327 331 330 330 333 336 339 341 341 342 347 349 351 353 354 353 352 353 355 358 3 6 7 6 6 7 6
229 220 216 210 199 194 195 198 201 209 221 231 239 243 244 243 242 242 243 245 251 257 263 267 270 271 274 277 278 279 281 283 285 286 285 283 289 295 293 289 288 288 287 286 285 284 284 286 288 291 294 298 304 311 315 315 316 321 328 332 332 332 333 337 341 342 340 342 348 351 352 352 353 354 354 355 357 359 3 7 8 8 8 7 7
228 222 217 210 202 198 198 202 207 215 224 233 240 242 245 245 244 244 245 247 252 259 264 267 268 269 271 273 274 274 277 282 285 286 283 282 289 294 291 288 287 288 287 285 284 284 284 286 288 290 294 299 304 310 313 314 315 320 328 333 332 332 336 340 342 341 339 342 348 350 350 351 352 354 355 357 358 360 3 6 7 8 8 6 6
229 224 217 210 203 200 202 207 213 220 228 235 240 244 248 249 248 247 247 249 255 260 263 265 265 266 268 269 269 270 273 279 284 284 280 281 288 291 289 286 286 287 287 285 284 283 284 286 288 290 294 299 304 308 311 312 314 319 327 331 331 332 337 339 339 338 338 341 344 348 350 351 351 354 356 358 359 0 2 4 5 7 7 5 4
230 225 218 210 204 201 205 211 218 225 232 238 243 248 251 252 251 250 250 253 257 260 262 263 263 264 265 265 266 267 268 274 280 281 279 280 286 288 285 285 287 288 288 285 283 282 282 284 287 289 292 297 303 307 309 310 313 319 326 330 330 332 335 338 339 340 343 345 345 345 347 349 349 353 356 358 359 359 360 0 2 4 5 4 4
229 224 215 206 202 203 209 216 223 231 238 244 248 252 254 253 252 251 252 254 257 260 261 261 261 261 260 260 261 263 266 270 275 277 277 280 284 285 284 286 288 288 286 283 281 281 282 284 287 288 291 298 304 306 307 307 311 320 327 329 330 332 336 338 340 344 347 349 347 343 342 344 346 351 355 357 357 356 357 358 359 2 4 3 3
225 220 210 202 201 206 213 220 228 236 243 248 252 254 254 252 251 251 252 255 258 260 261 261 260 259 259 258 258 258 262 267 271 272 273 278 283 285 285 285 286 285 283 282 282 282 282 285 287 290 294 300 304 305 306 306 311 321 328 329 330 333 337 339 340 344 348 349 345 341 342 344 346 349 352 354 354 354 354 355 357 359 1 1 2
222 215 206 202 205 211 217 223 231 239 246 252 255 255 254 253 251 251 253 256 259 261 262 262 261 258 256 254 252 252 257 263 268 269 270 276 283 285 283 282 282 281 281 282 283 283 283 285 289 293 297 302 304 305 306 307 312 322 329 330 330 333 337 338 340 344 346 343 341 341 343 344 347 349 349 350 352 352 351 352 354 356 358 359 0
219 213 208 208 212 216 220 226 234 241 249 253 255 256 254 253 252 253 255 257 259 263 264 264 263 262 260 260 259 261 264 265 265 266 269 275 282 283 281 279 279 279 280 283 285 285 286 288 292 296 299 302 304 304 307 309 313 324 331 331 331 334 337 337 339 341 340 337 338 340 341 341 344 348 349 348 349 350 349 349 351 353 354 356 358
220 216 213 215 218 221 225 231 237 244 250 253 255 256 255 254 253 254 257 259 262 267 268 267 269 272 273 273 273 272 268 264 264 265 268 274 281 283 280 278 278 278 281 284 286 287 289 291 295 298 301 302 303 304 308 310 314 325 332 331 333 336 335 332 332 333 333 334 336 339 339 339 341 346 351 352 349 347 347 349 349 349 350 353 356
222 221 220 221 223 226 230 235 239 244 248 251 254 256 255 255 255 257 260 264 266 267 266 269 274 276 275 274 272 269 266 263 263 265 268 274 282 283 280 278 277 278 282 286 287 288 291 294 297 300 300 300 301 305 310 313 317 325 332 333 333 332 327 323 324 327 329 331 334 336 337 339 340 343 349 355 355 350 347 348 349 348 347 350 355
222 223 223 225 226 229 232 237 240 243 245 247 252 255 257 257 259 261 264 267 268 268 269 274 276 272 269 271 271 268 265 264 264 266 268 275 283 284 280 278 278 280 284 287 288 289 291 294 296 298 299 300 304 309 313 316 320 325 330 330 326 323 320 319 319 322 325 329 333 335 336 338 340 342 345 350 357 359 356 350 349 349 348 349 353
Height
3179 3180 3180 3180 3180 3180 3180 3181 3181 3181 3182 3182 3182 3182 3182 3183 3183 3183 3183 3183 3183 3182 3182 3182 3182 3182 3182 3182 3182 3182 3182 3182 3182 3180 3179 3178 3177 3176 3176 3176 3175 3175 3174 3173 3173 3172 3171 3170 3169 3167 3166 3165 3164 3162 3161 3160 3159 3157 3156 3154 3153 3151 3150 3149 3147 3145 3144 3143 3141 3138 3137 3136 3134 3133 3131 3130 3128 3126 3124 3123 3121 3119 3117 3116 3114
3178 3178 3179 3179 3179 3179 3179 3180 3180 3181 3181 3181 3181 3181 3181 3182 3182 3182 3182 3183 3182 3182 3181 3182 3182 3181 3181 3181 3181 3181 3181 3181 3181 3180 3178 3177 3177 3176 3176 3175 3175 3174 3174 3173 3172 3171 3170 3169 3168 3167 3165 3164 3163 3161 3160 3159 3157 3156 3155 3153 3151 3150 3148 3147 3146 3144 3142 3141 3139 3137 3136 3134 3133 3131 3129 3128 3126 3124 3123 3121 3119 3117 3115 3113 3112
3177 3177 3178 3178 3178 3178 3178 3179 3179 3180 3180 3180 3180 3181 3181 3181 3181 3181 3181 3182 3182 3181 3181 3181 3181 3181 3181 3181 3181 3181 3180 3180 3180 3179 3177 3177 3176 3176 3175 3175 3174 3174 3173 3172 3171 3170 3169 3168 3167 3166 3164 3163 3162 3160 3159 3157 3156 3155 3153 3152 3150 3149 3147 3145 3144 3142 3141 3139 3138 3136 3134 3133 3131 3130 3128 3126 3124 3123 3121 3119 3117 3115 3113 3111 3109
3176 3177 3177 3177 3177 3177 3177 3178 3178 3179 3179 3180 3180 3180 3180 3180 3180 3180 3180 3181 3181 3180 3180 3180 3181 3181 3180 3180 3181 3180 3180 3180 3179 3178 3177 3177 3176 3176 3175 3174 3174 3173 3172 3171 3170 3169 3168 3167 3166 3165 3164 3162 3161 3159 3158 3156 3155 3153 3152 3151 3149 3148 3146 3144 3143 3141 3139 3138 3136 3135 3133 3132 3130 3128 3126 3124 3122 3121 3119 3116 3115 3112 3110 3108 3106
3175 3176 3176 3176 3176 3177 3177 3177 3177 3178 3178 3179 3179 3179 3179 3179 3179 3179 3179 3179 3179 3179 3180 3180 3180 3180 3180 3180 3180 3180 3180 3179 3178 3177 3177 3177 3176 3175 3175 3174 3173 3172 3171 3170 3169 3168 3167 3166 3165 3164 3162 3161 3159 3158 3156 3155 3154 3152 3151 3149 3148 3146 3145 3143 3141 3140 3138 3137 3135 3133 3132 3130 3128 3126 3124 3122 3120 3118 3116 3114 3112 3109 3107 3105 3103
3175 3175 3175 3175 3175 3176 3176 3176 3177 3177 3178 3178 3178 3178 3178 3178 3178 3178 3178 3178 3178 3179 3179 3179 3179 3179 3179 3179 3180 3180 3179 3178 3177 3177 3177 3176 3175 3175 3175 3174 3173 3172 3171 3169 3168 3167 3165 3164 3163 3162 3161 3159 3158 3156 3155 3154 3152 3151 3149 3148 3146 3145 3143 3142 3140 3139 3137 3135 3134 3132 3130 3128 3126 3124 3122 3120 3118 3116 3113 3110 3108 3106 3103 3100 3098
3174 3174 3174 3174 3175 3175 3175 3175 3176 3176 3176 3177 3177 3177 3177 3177 3177 3177 3177 3177 3178 3178 3178 3179 3179 3178 3179 3179 3179 3179 3178 3177 3177 3177 3176 3175 3175 3175 3174 3173 3172 3171 3170 3169 3167 3166 3165 3163 3161 3160 3159 3158 3156 3155 3154 3152 3151 3150 3148 3147 3145 3143 3142 3141 3139 3137 3136 3134 3132 3131 3129 3127 3125 3123 3121 3118 3116 3114 3111 3108 3105 3102 3099 3096 3093
3173 3173 3173 3174 3174 3174 3174 3175 3175 3175 3175 3176 3176 3176 3176 3175 3175 3176 3176 3176 3177 3178 3178 3178 3178 3178 3178 3178 3178 3177 3177 3176 3176 3176 3175 3175 3174 3174 3173 3172 3171 3170 3168 3167 3166 3165 3164 3162 3160 3159 3158 3156 3155 3154 3152 3151 3150 3148 3147 3146 3144 3142 3141 3140 3138 3137 3135 3133 3132 3130 3128 3126 3124 3121 3119 3116 3114 3111 3108 3105 3102 3099 3095 3092 3088
3172 3172 3172 3172 3173 3173 3174 3174 3174 3174 3174 3175 3175 3175 3175 3174 3174 3174 3175 3175 3176 3176 3177 3177 3177 3177 3178 3177 3177 3176 3176 3175 3175 3175 3174 3174 3174 3173 3172 3171 3170 3169 3167 3167 3166 3164 3163 3161 3160 3158 3157 3155 3154 3152 3151 3150 3149 3147 3146 3145 3143 3142 3140 3139 3138 3136 3135 3133 3131 3129 3127 3124 3122 3119 3117 3114 3112 3109 3106 3103 3099 3096 3092 3088 3085
3170 3170 3171 3171 3172 3172 3173 3173 3173 3173 3173 3173 3174 3174 3174 3173 3173 3173 3173 3174 3174 3175 3176 3176 3176 3177 3177 3176 3176 3175 3175 3175 3174 3174 3174 3173 3172 3171 3170 3169 3168 3167 3166 3166 3164 3163 3161 3160 3159 3157 3155 3154 3153 3151 3150 3149 3148 3147 3145 3144 3143 3141 3140 3139 3137 3136 3134 3132 3130 3128 3125 3123 3120 3118 3116 3113 3110 3107 3104 3100 3097 3093 3089 3085 3081
3169 3169 3170 3170 3170 3171 3171 3172 3171 3171 3172 3172 3172 3172 3172 3172 3171 3171 3172 3173 3173 3174 3174 3175 3176 3176 3175 3175 3174 3174 3174 3174 3173 3173 3172 3172 3171 3169 3168 3167 3167 3166 3165 3164 3163 3161 3160 3158 3157 3155 3154 3152 3151 3151 3150 3149 3147 3146 3145 3143 3142 3141 3140 3138 3136 3135 3133 3131 3128 3126 3124 3121 3119 3116 3114 3111 3108 3105 3102 3098 3095 3091 3087 3083 3078
3168 3168 3168 3168 3169 3169 3170 3170 3170 3170 3170 3170 3170 3171 3171 3170 3170 3170 3171 3171 3172 3173 3173 3174 3175 3175 3174 3173 3173 3173 3173 3173 3172 3172 3171 3170 3169 3168 3167 3166 3165 3164 3163 3162 3161 3159 3158 3157 3155 3154 3152 3151 3150 3150 3149 3148 3147 3146 3144 3143 3142 3141 3139 3138 3136 3134 3132 3129 3127 3125 3122 3120 3117 3115 3112 3109 3106 3103 3100 3096 3093 3089 3085 3081 3076
3166 3167 3167 3167 3168 3168 3169 3169 3169 3169 3169 3169 3169 3169 3169 3169 3169 3169 3170 3171 3171 3172 3172 3173 3173 3173 3173 3172 3172 3172 3172 3171 3171 3170 3170 3169 3168 3167 3166 3165 3165 3163 3162 3161 3160 3158 3157 3156 3154 3153 3151 3151 3150 3149 3149 3148 3147 3146 3144 3143 3142 3140 3139 3137 3135 3133 3130 3128 3126 3124 3121 3118 3116 3113 3110 3108 3104 3101 3098 3095 3091 3087 3083 3079 3074
3165 3165 3166 3166 3166 3167 3167 3168 3168 3168 3168 3168 3168 3168 3168 3168 3168 3168 3169 3170 3170 3171 3171 3172 3172 3172 3171 3171 3171 3171 3171 3171 3170 3170 3169 3168 3167 3166 3166 3165 3164 3162 3161 3160 3159 3158 3156 3155 3153 3152 3151 3150 3150 3149 3148 3147 3147 3146 3145 3143 3141 3140 3138 3135 3133 3131 3129 3127 3125 3122 3120 3117 3114 3111 3109 3106 3103 3100 3096 3093 3089 3085 3081 3077 3072
3163 3164 3164 3165 3165 3166 3166 3166 3167 3167 3167 3167 3167 3167 3167 3167 3167 3167 3168 3169 3169 3170 3171 3171 3171 3171 3170 3170 3170 3170 3170 3170 3170 3169 3168 3168 3167 3166 3165 3164 3163 3162 3161 3159 3158 3156 3155 3153 3152 3151 3151 3150 3150 3149 3148 3147 3146 3145 3144 3142 3140 3139 3137 3134 3132 3129 3128 3126 3123 3120 3118 3116 3113 3110 3107 3104 3101 3098 3094 3091 3087 3083 3079 3075 3070
3162 3162 3163 3163 3164 3164 3165 3165 3166 3166 3166 3166 3166 3166 3166 3166 3167 3167 3167 3168 3169 3169 3170 3170 3170 3170 3169 3169 3170 3170 3170 3169 3169 3168 3167 3167 3166 3165 3164 3163 3162 3161 3160 3158 3156 3155 3153 3152 3152 3151 3150 3150 3149 3148 3147 3147 3146 3145 3143 3141 3139 3138 3135 3133 3130 3128 3127 3125 3122 3119 3117 3114 3111 3108 3105 3102 3099 3095 3092 3088 3084 3080 3076 3072 3068
3160 3161 3161 3162 3162 3163 3164 3164 3164 3164 3164 3164 3164 3164 3165 3165 3166 3166 3167 3167 3168 3169 3169 3169 3169 3169 3169 3169 3169 3169 3169 3169 3168 3167 3166 3165 3165 3164 3163 3161 3160 3159 3158 3157 3155 3153 3152 3152 3151 3151 3150 3149 3148 3147 3147 3146 3145 3144 3142 3140 3138 3136 3134 3132 3129 3127 3126 3124 3121 3118 3115 3112 3109 3107 3104 3100 3097 3093 3090 3086 3082 3078 3074 3070 3066
3159 3159 3160 3161 3161 3162 3162 3163 3163 3163 3163 3163 3163 3163 3163 3164 3164 3165 3166 3167 3167 3168 3168 3169 3168 3168 3168 3168 3168 3168 3168 3168 3167 3166 3165 3164 3163 3162 3161 3160 3159 3158 3157 3155 3154 3152 3152 3152 3151 3150 3149 3148 3147 3147 3146 3145 3144 3143 3141 3139 3137 3135 3133 3130 3128 3126 3125 3122 3119 3116 3113 3110 3107 3105 3102 3098 3095 3091 3087 3084 3080 3076 3072 3068 3064
3158 3158 3159 3159 3160 3160 3161 3161 3162 3162 3162 3162 3162 3162 3162 3162 3163 3164 3165 3166 3167 3167 3168 3168 3167 3167 3168 3168 3167 3167 3167 3166 3166 3165 3164 3163 3162 3161 3160 3159 3158 3156 3155 3154 3153 3152 3151 3151 3150 3149 3148 3147 3147 3146 3146 3144 3143 3141 3140 3138 3136 3134 3131 3129 3127 3125 3123 3121 3118 3115 3111 3108 3105 3102 3099 3096 3092 3089 3085 3082 3078 3075 3070 3066 3062
3156 3157 3158 3158 3158 3159 3159 3160 3160 3160 3160 3161 3161 3161 3161 3161 3162 3163 3164 3165 3166 3166 3167 3167 3167 3167 3167 3167 3166 3166 3166 3165 3165 3164 3163 3162 3161 3160 3159 3158 3156 3155 3154 3153 3152 3151 3151 3150 3149 3148 3147 3147 3146 3146 3145 3143 3142 3140 3138 3136 3134 3132 3129 3127 3125 3123 3121 3119 3116 3113 3110 3106 3103 3100 3097 3093 3090 3086 3083 3080 3076 3072 3068 3064 3060
3155 3156 3156 3157 3157 3157 3158 3158 3159 3159 3159 3159 3159 3159 3159 3160 3161 3162 3163 3164 3165 3165 3166 3166 3166 3166 3166 3166 3165 3165 3165 3164 3163 3163 3162 3161 3160 3159 3157 3156 3156 3155 3154 3153 3152 3151 3150 3149 3148 3147 3146 3146 3146 3145 3143 3142 3140 3139 3137 3135 3132 3130 3128 3126 3124 3121 3119 3117 3114 3111 3108 3104 3101 3098 3094 3091 3088 3084 3081 3078 3075 3071 3066 3062 3058
3153 3154 3154 3155 3156 3156 3156 3156 3157 3157 3157 3157 3157 3158 3158 3159 3160 3161 3162 3163 3164 3164 3165 3165 3165 3165 3165 3164 3164 3164 3163 3163 3162 3162 3161 3160 3159 3158 3156 3156 3155 3154 3153 3152 3151 3150 3149 3148 3147 3146 3146 3145 3145 3143 3142 3141 3139 3137 3135 3133 3130 3128 3126 3124 3122 3119 3117 3114 3112 3109 3105 3102 3098 3095 3092 3089 3085 3082 3079 3076 3072 3068 3064 3060 3056
3152 3152 3153 3153 3154 3154 3155 3155 3155 3155 3155 3156 3156 3156 3157 3158 3159 3160 3161 3162 3163 3163 3163 3163 3163 3163 3163 3163 3163 3162 3162 3162 3161 3160 3160 3159 3158 3157 3156 3155 3154 3154 3153 3151 3150 3149 3148 3147 3146 3146 3145 3144 3144 3142 3141 3139 3137 3135 3133 3131 3128 3127 3124 3122 3120 3117 3115 3112 3109 3106 3103 3099 3096 3093 3090 3087 3083 3080 3077 3074 3070 3066 3062 3058 3054
3150 3151 3151 3152 3152 3153 3153 3153 3153 3153 3154 3154 3154 3155 3156 3157 3158 3159 3160 3161 3161 3161 3161 3162 3162 3162 3162 3162 3161 3161 3161 3160 3160 3159 3158 3157 3157 3156 3155 3154 3154 3153 3152 3151 3149 3148 3147 3146 3146 3145 3144 3143 3142 3141 3140 3138 3136 3133 3131 3129 3127 3125 3123 3121 3118 3115 3112 3110 3106 3103 3100 3097 3093 3090 3088 3085 3081 3078 3075 3072 3069 3065 3061 3057 3052
3148 3149 3149 3150 3150 3151 3151 3151 3151 3151 3152 3152 3153 3154 3155 3156 3157 3158 3159 3159 3160 3160 3160 3160 3160 3160 3160 3160 3160 3160 3159 3159 3158 3158 3157 3156 3155 3155 3154 3154 3153 3152 3151 3150 3148 3147 3146 3145 3145 3144 3143 3142 3141 3140 3138 3136 3134 3131 3129 3128 3126 3124 3121 3119 3116 3113 3110 3107 3104 3101 3098 3095 3092 3089 3086 3083 3079 3076 3073 3070 3066 3062 3059 3055 3050
3146 3147 3147 3148 3148 3148 3149 3149 3149 3149 3150 3151 3151 3152 3153 3155 3156 3157 3158 3158 3158 3158 3159 3159 3159 3159 3158 3158 3158 3158 3158 3158 3157 3156 3156 3155 3154 3154 3153 3153 3152 3151 3150 3149 3147 3146 3145 3144 3144 3143 3142 3141 3140 3138 3137 3135 3132 3130 3128 3127 3125 3122 3120 3117 3114 3111 3108 3106 3103 3100 3097 3093 3090 3087 3084 3081 3078 3075 3071 3068 3064 3060 3056 3052 3048
3144 3145 3145 3146 3146 3147 3147 3147 3147 3147 3148 3149 3150 3151 3152 3153 3155 3156 3156 3157 3157 3157 3157 3157 3157 3157 3157 3157 3157 3157 3156 3156 3156 3155 3155 3154 3153 3153 3152 3151 3150 3149 3149 3148 3146 3145 3144 3143 3143 3142 3141 3140 3138 3137 3135 3133 3131 3129 3127 3125 3123 3120 3118 3115 3112 3110 3107 3104 3101 3098 3095 3092 3089 3085 3082 3079 3076 3073 3069 3066 3062 3058 3054 3050 3046
3142 3143 3144 3144 3144 3145 3145 3145 3146 3146 3147 3148 3149 3150 3152 3153 3153 3154 3155 3155 3156 3156 3155 3155 3156 3156 3156 3156 3156 3155 3155 3154 3154 3154 3154 3153 3153 3152 3151 3150 3149 3148 3147 3146 3145 3144 3143 3142 3141 3141 3139 3138 3137 3135 3133 3131 3129 3127 3126 3124 3121 3119 3116 3114 3111 3109 3106 3103 3100 3097 3094 3091 3087 3084 3081 3078 3074 3071 3068 3064 3060 3056 3052 3048 3044
3140 3141 3142 3142 3142 3143 3143 3144 3144 3145 3146 3147 3148 3149 3150 3151 3152 3153 3153 3154 3154 3154 3154 3154 3154 3154 3155 3155 3154 3154 3153 3153 3152 3152 3152 3152 3151 3151 3150 3149 3148 3146 3145 3145 3144 3143 3142 3141 3140 3139 3137 3136 3135 3133 3132 3130 3128 3126 3124 3122 3120 3117 3115 3112 3110 3107 3104 3101 3098 3095 3092 3089 3086 3083 3080 3076 3073 3070 3066 3063 3059 3054 3050 3046 3042
3139 3139 3140 3140 3140 3140 3141 3142 3143 3144 3145 3146 3147 3147 3149 3150 3151 3151 3152 3152 3152 3152 3153 3153 3153 3153 3153 3153 3153 3152 3152 3151 3151 3151 3150 3150 3150 3149 3149 3147 3146 3145 3144 3143 3142 3141 3141 3139 3138 3137 3136 3135 3133 3132 3130 3129 3127 3125 3123 3120 3118 3116 3113 3111 3109 3106 3103 3100 3097 3094 3091 3088 3085 3082 3079 3075 3072 3068 3065 3061 3057 3053 3049 3045 3040
3137 3137 3137 3138 3138 3138 3139 3140 3141 3142 3144 3145 3146 3146 3148 3149 3150 3150 3151 3151 3151 3151 3151 3152 3152 3152 3152 3152 3151 3151 3151 3150 3150 3149 3149 3148 3148 3147 3147 3146 3145 3144 3143 3142 3141 3140 3139 3138 3137 3136 3134 3133 3132 3130 3128 3127 3125 3124 3121 3119 3116 3114 3112 3110 3107 3104 3101 3098 3095 3093 3090 3087 3084 3081 3077 3073 3070 3067 3063 3059 3055 3051 3048 3043 3039
3134 3135 3135 3135 3136 3137 3137 3138 3139 3141 3142 3144 3145 3145 3147 3148 3149 3149 3149 3149 3149 3150 3150 3150 3150 3150 3150 3150 3150 3150 3149 3149 3149 3148 3147 3147 3146 3145 3145 3144 3143 3142 3142 3141 3140 3139 3138 3137 3136 3134 3133 3131 3130 3128 3126 3125 3123 3122 3120 3118 3115 3113 3111 3108 3105 3103 3100 3097 3094 3091 3089 3086 3083 3079 3076 3072 3069 3066 3062 3058 3054 3050 3046 3042 3037
3132 3132 3132 3133 3134 3135 3136 3137 3138 3139 3140 3142 3144 3145 3146 3147 3147 3147 3147 3147 3148 3148 3149 3149 3149 3149 3149 3149 3149 3148 3148 3148 3147 3147 3146 3145 3144 3143 3143 3142 3141 3141 3140 3139 3138 3138 3137 3136 3134 3133 3132 3130 3129 3127 3125 3123 3121 3120 3119 3117 3115 3112 3110 3107 3104 3101 3099 3096 3093 3090 3088 3085 3082 3078 3074 3071 3068 3064 3060 3057 3053 3049 3045 3041 3036
3130 3130 3130 3131 3132 3133 3134 3135 3136 3137 3139 3141 3143 3144 3145 3146 3146 3146 3146 3146 3147 3147 3147 3147 3147 3147 3147 3147 3147 3147 3147 3146 3146 3145 3145 3144 3143 3142 3141 3140 3139 3139 3138 3138 3137 3136 3135 3134 3133 3132 3130 3129 3127 3126 3125 3123 3121 3119 3117 3115 3114 3111 3109 3106 3103 3100 3098 3095 3092 3089 3086 3083 3080 3077 3073 3070 3067 3063 3060 3056 3052 3048 3044 3039 3035
3128 3128 3128 3129 3130 3131 3132 3133 3135 3136 3138 3140 3141 3143 3144 3144 3144 3144 3144 3145 3145 3145 3145 3146 3146 3146 3146 3146 3145 3145 3145 3145 3144 3144 3143 3142 3142 3141 3140 3139 3138 3138 3137 3136 3135 3135 3134 3133 3132 3131 3129 3127 3126 3125 3124 3123 3121 3119 3116 3114 3112 3110 3108 3105 3102 3100 3097 3094 3091 3088 3085 3082 3079 3075 3072 3069 3066 3063 3059 3055 3051 3047 3043 3038 3033
3125 3126 3126 3127 3128 3130 3131 3132 3134 3135 3137 3139 3140 3141 3142 3142 3142 3143 3143 3143 3143 3144 3144 3144 3144 3144 3144 3144 3143 3143 3143 3143 3143 3142 3141 3140 3140 3139 3138 3138 3137 3136 3136 3135 3134 3133 3132 3131 3130 3129 3128 3126 3125 3124 3123 3122 3121 3118 3116 3113 3111 3108 3106 3103 3101 3099 3096 3093 3090 3087 3084 3081 3078 3075 3072 3069 3066 3062 3058 3054 3051 3047 3042 3037 3032
3123 3124 3125 3126 3127 3128 3130 3131 3133 3135 3136 3138 3139 3140 3140 3141 3141 3141 3141 3141 3142 3142 3143 3143 3143 3143 3142 3142 3141 3141 3141 3141 3141 3140 3139 3138 3138 3137 3137 3136 3135 3134 3134 3133 3132 3131 3131 3129 3128 3127 3126 3125 3124 3123 3122 3120 3118 3116 3114 3112 3110 3107 3104 3102 3100 3097 3095 3092 3090 3087 3084 3081 3078 3075 3072 3069 3065 3061 3057 3054 3050 3046 3041 3036 3032
3121 3122 3123 3124 3125 3127 3128 3130 3132 3133 3135 3136 3137 3138 3139 3139 3139 3139 3140 3140 3140 3141 3141 3141 3141 3140 3140 3140 3139 3139 3139 3139 3139 3138 3137 3136 3136 3135 3135 3134 3133 3132 3132 3131 3130 3129 3129 3127 3126 3126 3125 3124 3123 3122 3121 3119 3118 3115 3113 3110 3108 3106 3104 3101 3098 3096 3094 3092 3089 3086 3083 3081 3078 3074 3071 3068 3065 3061 3057 3053 3049 3045 3041 3036 3031
3119 3120 3121 3122 3124 3125 3127 3129 3130 3132 3134 3135 3136 3136 3137 3137 3137 3138 3138 3139 3139 3139 3139 3139 3139 3138 3138 3138 3138 3137 3137 3137 3136 3136 3135 3134 3134 3133 3133 3132 3131 3131 3130 3129 3128 3128 3127 3126 3125 3124 3123 3122 3121 3120 3119 3118 3117 3115 3113 3110 3107 3105 3103 3101 3098 3096 3093 3091 3089 3086 3083 3080 3077 3074 3071 3068 3064 3061 3057 3053 3049 3044 3040 3035 3031
3117 3118 3119 3120 3122 3124 3126 3127 3129 3131 3132 3133 3134 3135 3135 3135 3136 3136 3137 3137 3137 3137 3137 3137 3137 3136 3136 3136 3136 3135 3135 3134 3134 3134 3133 3132 3132 3131 3130 3130 3129 3129 3128 3127 3127 3126 3125 3124 3123 3122 3121 3120 3119 3118 3117 3116 3115 3114 3112 3110 3107 3104 3102 3100 3098 3095 3093 3091 3089 3086 3083 3080 3077 3074 3071 3068 3064 3061 3057 3053 3048 3044 3039 3035 3030
3115 3116 3117 3118 3120 3122 3124 3126 3128 3129 3130 3131 3132 3133 3133 3134 3134 3134 3135 3135 3135 3135 3135 3135 3134 3134 3134 3134 3134 3133 3133 3132 3131 3131 3131 3130 3129 3129 3128 3128 3127 3126 3126 3125 3125 3124 3123 3122 3121 3121 3120 3119 3118 3117 3115 3114 3113 3112 3111 3109 3106 3103 3101 3099 3096 3094 3092 3090 3088 3085 3082 3079 3077 3074 3071 3067 3064 3060 3056 3052 3048 3043 3039 3035 3031
3113 3114 3115 3117 3118 3121 3123 3125 3126 3127 3129 3130 3130 3131 3131 3132 3132 3133 3133 3133 3133 3133 3133 3132 3132 3132 3132 3132 3131 3131 3131 3130 3129 3129 3128 3128 3127 3127 3126 3125 3125 3124 3124 3123 3123 3122 3121 3120 3119 3119 3118 3117 3116 3115 3114 3112 3110 3109 3108 3107 3105 3102 3100 3097 3095 3093 3091 3088 3086 3084 3082 3079 3076 3073 3070 3067 3063 3059 3055 3051 3047 3043 3039 3035 3031
3111 3112 3114 3115 3117 3120 3122 3124 3125 3126 3127 3128 3128 3129 3129 3130 3130 3131 3131 3131 3131 3131 3131 3130 3130 3129 3129 3129 3129 3129 3129 3128 3127 3127 3126 3126 3125 3125 3124 3123 3123 3122 3122 3121 3121 3120 3119 3118 3117 3117 3116 3115 3114 3113 3112 3111 3109 3107 3106 3105 3104 3102 3100 3097 3095 3093 3090 3088 3085 3083 3081 3078 3075 3073 3070 3066 3062 3059 3055 3051 3047 3044 3040 3036 3031
3109 3111 3112 3114 3116 3119 3121 3122 3123 3124 3125 3126 3126 3127 3127 3128 3128 3129 3129 3129 3129 3129 3128 3128 3127 3127 3127 3126 3126 3126 3126 3126 3126 3125 3125 3124 3123 3122 3122 3121 3121 3120 3120 3119 3119 3118 3117 3117 3116 3115 3114 3113 3112 3112 3111 3109 3108 3106 3104 3103 3102 3100 3099 3097 3095 3092 3090 3087 3084 3082 3080 3078 3075 3072 3069 3066 3062 3059 3055 3052 3048 3044 3040 3036 3032
3108 3109 3111 3113 3115 3117 3119 3120 3121 3122 3123 3123 3124 3125 3125 3126 3126 3126 3127 3127 3126 3126 3126 3125 3125 3124 3124 3123 3124 3124 3124 3124 3123 3123 3123 3122 3121 3120 3120 3119 3119 3118 3118 3117 3117 3116 3116 3115 3114 3114 3113 3112 3111 3110 3110 3109 3107 3104 3102 3101 3100 3098 3096 3095 3093 3091 3088 3086 3083 3081 3079 3076 3074 3071 3068 3065 3062 3059 3056 3052 3049 3045 3041 3037 3033
3106 3108 3109 3111 3114 3116 3117 3118 3119 3120 3120 3121 3122 3122 3123 3123 3123 3124 3124 3124 3124 3123 3123 3122 3122 3121 3121 3121 3120 3120 3121 3121 3121 3121 3120 3120 3119 3118 3118 3117 3117 3116 3115 3115 3115 3115 3114 3113 3113 3112 3111 3111 3110 3109 3108 3108 3106 3104 3102 3100 3098 3096 3095 3093 3091 3089 3087 3085 3083 3081 3079 3075 3072 3069 3067 3064 3062 3059 3055 3052 3049 3045 3041 3037 3033
3105 3106 3108 3110 3112 3114 3115 3116 3117 3118 3118 3118 3119 3120 3120 3120 3121 3121 3121 3121 3121 3121 3120 3119 3119 3118 3118 3117 3116 3116 3117 3118 3118 3118 3118 3117 3117 3116 3116 3115 3115 3114 3113 3113 3113 3113 3112 3112 3111 3111 3110 3109 3109 3108 3107 3106 3104 3103 3101 3099 3097 3095 3093 3091 3089 3087 3085 3084 3082 3080 3078 3075 3072 3069 3066 3064 3061 3058 3055 3052 3049 3045 3041 3038 3034
3103 3104 3106 3108 3110 3111 3112 3114 3114 3115 3115 3116 3116 3117 3117 3118 3118 3118 3118 3118 3118 3118 3117 3116 3115 3115 3115 3114 3114 3115 3115 3116 3116 3116 3115 3115 3115 3114 3114 3113 3113 3112 3112 3112 3111 3111 3111 3110 3109 3109 3109 3108 3107 3107 3106 3104 3103 3101 3099 3098 3096 3094 3092 3090 3088 3086 3084 3082 3080 3078 3076 3074 3073 3070 3067 3063 3060 3058 3055 3052 3048 3045 3041 3038 3034
3101 3102 3104 3106 3107 3109 3110 3111 3112 3113 3113 3113 3114 3114 3115 3115 3115 3115 3115 3115 3115 3115 3113 3113 3113 3113 3113 3113 3114 3114 3114 3113 3113 3113 3113 3113 3113 3112 3112 3112 3111 3110 3110 3110 3110 3109 3109 3108 3108 3107 3107 3106 3106 3105 3104 3102 3101 3099 3098 3096 3095 3093 3091 3089 3087 3085 3083 3081 3079 3077 3075 3073 3071 3069 3067 3064 3061 3057 3055 3051 3048 3044 3041 3038 3035
3099 3100 3102 3104 3105 3106 3108 3109 3109 3110 3110 3111 3111 3112 3112 3112 3113 3113 3112 3112 3112 3111 3109 3109 3110 3111 3111 3110 3111 3111 3111 3111 3110 3111 3111 3111 3111 3111 3110 3110 3109 3109 3108 3108 3108 3108 3107 3107 3106 3106 3105 3104 3104 3103 3101 3100 3099 3098 3097 3095 3093 3092 3090 3088 3086 3084 3082 3080 3078 3076 3074 3072 3069 3067 3066 3065 3062 3059 3055 3051 3048 3045 3041 3038 3035
3097 3098 3099 3101 3102 3104 3105 3106 3107 3107 3108 3108 3109 3109 3110 3110 3110 3110 3109 3109 3108 3106 3106 3107 3108 3108 3107 3107 3107 3108 3108 3108 3108 3109 3109 3109 3109 3108 3108 3107 3107 3107 3106 3107 3106 3106 3106 3105 3104 3104 3103 3102 3101 3100 3099 3098 3097 3096 3095 3094 3093 3091 3088 3086 3084 3083 3081 3079 3077 3074 3072 3070 3068 3065 3063 3062 3061 3059 3056 3052 3048 3045 3041 3038 3034